Wetbulb
57.55 57.58 57.36 57.05 56.76 56.61 56.71 56.30 56.34 56.81 57.39 57.57 57.21 57.40 57.32 55.85 52.07 45.68 41.09 50.37 54.39 58.51 57.62 50.77 50.00 47.48 48.00 44.27 45.26 44.35 38.41 34.16 34.24 34.75 34.12 38.21 35.82 38.97 40.62 37.89 38.29 39.07 38.83 40.50 42.93
56.61 56.99 57.41 57.28 56.42 56.35 55.99 55.90 55.90 56.67 57.09 57.32 57.27 57.40 56.64 53.03 44.60 42.70 52.24 56.43 57.84 57.73 47.76 48.30 45.60 46.78 43.19 43.01 43.02 40.59 35.12 32.33 36.79 37.62 34.95 36.04 37.48 37.29 36.37 36.56 36.09 37.47 40.09 41.11 41.80
56.10 56.40 57.16 57.05 56.49 55.93 55.38 55.18 55.57 56.56 56.73 56.79 56.40 55.54 54.94 50.00 43.12 41.25 55.65 56.31 56.81 52.16 45.68 46.31 45.86 45.72 41.24 42.14 40.01 38.22 33.90 35.80 36.30 37.58 38.09 35.63 35.57 37.63 35.97 33.31 35.05 35.18 37.15 39.20 40.11
55.37 56.02 56.32 56.64 56.39 55.59 54.88 54.85 55.53 56.25 56.33 56.71 56.14 54.89 52.04 45.66 34.79 42.93 55.76 55.21 54.92 47.43 46.57 46.58 45.65 40.82 37.55 37.54 39.29 34.55 36.42 36.81 36.80 36.56 36.27 34.65 36.19 34.47 35.47 34.98 37.68 37.82 38.02 38.47 38.41
55.18 55.29 55.80 56.11 55.76 55.53 55.16 54.66 55.10 55.63 55.66 56.07 55.74 54.74 47.52 40.60 38.97 44.64 51.94 49.66 42.84 42.79 41.23 43.53 42.64 40.94 37.22 38.09 38.23 35.11 34.78 35.81 36.41 35.95 35.65 36.30 33.92 33.52 33.75 36.40 37.87 37.79 37.59 37.26 37.73
55.03 54.93 55.04 55.31 55.31 55.43 54.92 54.62 54.60 55.13 55.39 54.56 54.86 51.49 44.18 36.82 44.11 43.83 41.87 42.74 41.79 43.25 41.65 42.34 42.27 41.95 37.28 36.16 37.24 36.89 35.49 34.57 35.45 35.52 35.21 33.57 32.82 34.03 34.15 36.54 35.83 36.07 35.84 36.76 37.06
54.93 54.54 54.29 54.67 54.90 54.67 54.72 54.16 54.35 54.74 55.07 55.20 52.94 45.19 42.11 39.46 44.25 44.42 42.54 41.65 41.37 41.98 39.35 39.59 41.43 41.96 40.47 35.68 38.43 36.14 31.87 32.86 32.53 33.99 32.95 34.67 30.28 30.33 34.52 35.47 34.21 34.62 35.73 36.35 36.73
54.84 54.32 53.65 53.84 53.64 53.60 53.55 53.45 53.71 54.19 54.33 53.03 51.88 46.37 40.22 44.90 46.11 43.97 43.34 43.84 43.25 42.82 41.19 40.54 41.01 37.60 36.68 37.68 33.69 31.95 31.12 29.14 31.66 32.83 32.45 33.00 28.85 31.89 34.30 34.10 33.22 34.16 34.72 35.49 36.50
54.47 54.06 53.58 53.55 53.04 52.47 52.64 52.78 52.75 53.76 53.25 50.72 47.39 45.19 39.47 49.14 42.82 43.08 43.05 40.56 41.50 41.67 41.77 40.70 39.66 36.60 35.64 33.14 31.28 30.53 28.31 27.17 28.40 32.07 32.36 31.85 29.10 32.71 34.00 33.33 33.09 34.04 34.43 35.12 35.90
54.20 54.10 53.58 53.24 52.57 51.56 51.18 51.43 50.72 50.93 47.50 45.45 43.59 43.54 43.02 39.92 41.63 41.51 43.20 41.70 39.09 39.60 39.15 37.21 36.32 34.79 33.65 33.14 28.19 27.92 28.23 27.85 26.82 30.40 30.79 29.33 30.27 31.12 33.03 32.66 32.90 33.93 34.08 34.51 35.18
54.00 53.92 53.66 53.48 52.05 51.40 51.24 49.68 44.59 44.27 43.67 40.68 40.14 39.58 40.10 42.65 42.73 41.35 40.94 41.61 40.34 37.34 32.76 34.79 32.57 28.97 29.77 31.12 30.45 29.36 27.14 26.47 28.58 30.51 28.13 28.44 28.89 30.63 32.20 31.47 31.84 32.70 32.92 33.72 34.64
53.59 53.69 53.47 53.10 50.96 51.66 52.64 48.92 44.57 45.83 40.22 41.99 41.82 41.66 42.04 41.69 39.01 40.10 42.06 37.81 35.95 31.80 33.33 32.43 27.74 30.27 30.88 30.51 29.27 28.15 26.58 26.37 28.06 29.84 28.88 27.62 28.25 30.63 31.12 31.45 32.65 33.17 33.43 33.75 34.58
53.14 53.36 53.17 51.95 50.20 49.93 50.54 49.46 51.38 47.82 40.95 41.40 41.88 41.32 41.37 41.84 37.33 38.11 39.15 35.86 33.85 31.89 31.77 30.18 30.34 31.99 30.23 28.71 28.22 27.50 26.99 26.21 26.01 28.53 28.90 28.11 27.23 27.01 31.25 32.25 32.56 33.29 33.82 34.21 34.00
52.60 52.66 52.20 50.25 49.19 49.03 50.15 52.89 53.05 49.04 36.99 38.08 39.99 41.69 41.97 41.04 37.84 39.56 39.24 37.35 34.02 30.50 30.99 31.06 32.23 30.34 29.53 28.35 28.71 27.03 28.90 27.57 26.86 25.91 24.02 28.02 22.47 25.72 27.53 29.68 31.26 33.11 33.99 34.33 34.70
52.02 52.56 52.06 50.98 48.95 49.28 52.47 53.49 53.58 51.39 29.45 38.91 39.81 45.27 41.85 39.71 39.39 38.79 39.34 38.15 32.05 30.75 32.82 29.45 30.17 29.84 29.17 28.69 29.75 28.55 29.07 27.84 27.45 26.19 24.62 23.34 22.13 26.87 25.58 28.42 31.54 33.72 35.15 35.62 35.26
51.71 52.90 52.79 52.27 51.89 52.13 52.46 51.41 52.09 38.16 28.28 36.64 39.83 38.62 38.96 39.33 37.84 38.47 37.62 38.54 35.92 33.35 32.76 30.58 33.30 32.08 30.98 31.11 30.55 29.90 27.96 26.62 25.63 24.93 21.46 20.92 22.61 24.74 26.76 28.67 30.60 33.18 34.05 34.04 34.59
51.35 51.60 53.61 52.28 50.48 51.79 50.24 49.14 36.95 30.35 39.00 35.41 36.38 38.08 36.71 36.22 35.93 35.43 33.01 31.83 31.46 30.84 28.84 29.91 29.95 32.13 32.64 29.75 31.58 30.67 26.61 25.42 24.62 23.22 21.94 20.22 20.37 25.11 29.26 30.56 30.83 32.33 33.64 34.78 34.33
50.54 50.55 49.89 49.99 49.84 51.15 49.64 43.41 29.03 34.96 35.66 38.69 37.43 37.47 35.22 35.98 34.83 33.94 32.63 31.21 31.87 30.90 28.41 28.09 28.14 29.79 32.00 30.47 27.85 27.00 26.25 24.36 18.79 19.82 20.86 19.59 17.09 28.68 29.22 31.34 32.39 33.01 33.59 34.07 33.67
50.74 49.26 47.28 50.02 50.44 51.12 45.87 33.50 33.28 35.10 37.63 36.50 37.10 35.06 34.61 35.90 36.08 34.06 31.56 30.77 31.24 31.72 29.98 28.47 27.79 31.24 31.68 32.09 30.84 27.11 25.61 26.61 21.37 19.89 17.62 21.07 22.85 28.45 29.62 30.58 31.75 32.43 33.20 33.96 32.44
49.77 44.89 46.49 49.68 50.57 48.07 41.47 35.61 37.31 38.92 38.72 38.19 35.10 36.10 33.48 34.11 34.19 33.81 31.94 32.99 31.49 32.93 33.37 29.78 27.18 30.12 30.34 32.48 31.21 29.68 29.64 24.39 23.63 17.55 17.26 20.43 16.33 24.27 29.02 30.07 31.41 31.71 32.42 33.28 32.71
49.15 41.68 46.76 49.07 50.55 45.20 37.10 36.21 38.39 39.15 40.19 38.30 36.35 34.88 35.00 33.94 34.54 33.00 32.76 32.48 33.27 32.56 33.60 31.31 28.89 28.13 29.96 28.35 27.99 27.08 26.21 24.07 24.27 22.70 19.45 15.69 26.06 28.42 28.50 30.53 30.01 31.66 32.64 32.19 33.34
46.62 38.79 46.88 49.98 42.73 35.50 36.57 37.65 39.90 37.98 40.50 39.22 38.97 37.17 35.81 34.81 33.96 33.34 32.91 33.94 34.09 34.64 31.24 31.46 29.22 26.18 28.04 30.28 31.59 29.73 28.43 28.40 24.53 20.47 20.46 19.34 21.53 31.66 31.26 30.88 30.86 31.90 32.50 33.09 33.51
41.35 40.59 46.90 50.68 35.05 35.81 37.37 38.59 39.23 37.66 38.16 38.10 36.55 37.97 37.61 35.47 33.19 34.41 33.86 33.43 34.50 33.65 31.96 31.82 28.37 26.55 27.09 28.09 29.45 27.67 28.28 28.21 26.82 24.34 21.03 20.67 28.15 30.80 29.82 30.45 32.79 31.38 32.49 32.71 33.02
43.42 37.46 39.74 42.88 40.37 38.86 37.12 37.10 36.65 39.42 38.62 38.89 36.96 38.08 36.28 34.61 35.69 33.56 32.48 32.93 34.60 34.37 35.60 33.95 28.91 28.50 29.16 30.91 29.78 25.20 26.70 27.93 27.45 23.02 22.40 23.22 28.66 32.31 33.43 31.01 31.59 31.17 31.36 31.84 32.42
43.72 41.15 39.10 34.47 38.96 38.39 39.36 37.41 35.31 35.25 38.88 38.83 35.81 36.32 35.81 33.35 34.09 33.39 32.77 31.76 33.24 37.14 32.51 32.75 28.27 27.41 29.24 29.79 28.83 27.55 27.65 27.25 23.87 25.21 24.58 27.52 23.96 29.38 31.95 31.81 30.71 29.63 30.69 31.08 32.02
44.83 42.41 40.79 38.16 39.56 38.70 37.16 36.11 35.59 36.00 36.70 35.55 35.53 36.29 36.36 34.87 36.18 33.87 33.76 32.75 33.06 32.58 31.92 30.95 28.65 27.84 27.18 28.16 27.51 26.60 29.25 28.94 28.05 26.26 22.45 26.20 25.97 34.03 34.82 30.78 28.83 29.91 30.69 30.80 31.81
43.21 45.04 44.07 37.18 37.70 38.22 37.63 38.18 37.21 38.33 38.09 38.11 37.59 36.34 34.74 36.70 38.35 37.97 37.68 36.39 36.40 33.60 30.93 30.50 28.72 27.41 26.46 28.54 27.07 27.81 30.31 29.12 28.53 29.08 26.38 25.29 32.44 31.41 31.93 31.18 32.67 32.24 31.44 31.89 31.86
MSLP
1019.27 1019.13 1018.92 1018.71 1018.33 1018.17 1017.96 1017.65 1017.36 1017.02 1016.96 1016.53 1015.96 1015.70 1015.71 1015.51 1015.05 1013.42 1016.24 1018.35 1017.06 1015.17 1014.60 1013.94 1012.85 1013.61 1013.85 1016.07 1017.33 1018.41 1021.01 1023.98 1025.50 1026.23 1027.70 1028.40 1028.54 1029.33 1029.81 1029.53 1029.94 1030.57 1031.05 1031.46 1031.31
1019.49 1019.36 1019.18 1018.78 1018.69 1018.46 1018.12 1017.68 1017.42 1017.22 1016.79 1016.42 1015.94 1015.73 1015.74 1015.36 1015.20 1015.26 1017.45 1017.08 1016.01 1015.09 1014.52 1013.83 1014.91 1014.83 1016.74 1018.44 1019.38 1020.37 1023.45 1025.88 1026.75 1027.23 1028.21 1028.85 1028.88 1029.39 1030.03 1030.19 1030.76 1031.18 1031.62 1031.75 1031.56
1019.81 1019.44 1019.21 1019.18 1018.88 1018.46 1018.13 1017.97 1017.76 1017.38 1016.91 1016.44 1016.00 1015.78 1015.69 1015.46 1015.72 1017.91 1017.43 1017.01 1016.01 1015.19 1014.98 1015.11 1015.76 1016.52 1018.63 1020.50 1022.03 1023.52 1025.30 1027.16 1028.03 1028.41 1028.83 1029.30 1029.69 1030.03 1030.25 1030.79 1031.41 1031.54 1031.84 1031.87 1031.65
1019.98 1019.82 1019.58 1019.21 1018.97 1018.76 1018.47 1018.18 1017.94 1017.53 1017.08 1016.62 1016.22 1016.00 1015.96 1015.89 1019.29 1019.51 1018.49 1017.37 1016.36 1015.18 1015.03 1015.77 1016.43 1018.59 1021.00 1022.43 1023.86 1024.93 1027.37 1027.87 1028.87 1029.31 1029.49 1029.86 1030.39 1030.64 1030.92 1031.54 1031.80 1031.96 1032.01 1031.83 1031.53
1020.30 1019.98 1019.66 1019.44 1019.17 1018.92 1018.67 1018.40 1018.02 1017.65 1017.26 1016.87 1016.65 1016.42 1016.59 1017.76 1020.86 1020.26 1019.40 1017.76 1016.77 1016.18 1016.63 1017.03 1017.83 1019.93 1021.82 1023.93 1024.75 1026.14 1028.00 1028.93 1029.50 1029.67 1030.13 1030.44 1030.85 1030.92 1031.63 1031.95 1032.05 1032.15 1032.16 1031.99 1031.75
1020.43 1020.25 1019.95 1019.62 1019.29 1019.00 1018.79 1018.56 1018.13 1017.93 1017.72 1017.24 1017.02 1017.10 1017.51 1018.64 1020.81 1020.80 1020.15 1018.58 1018.10 1017.39 1017.99 1017.88 1019.47 1020.72 1023.03 1024.77 1025.37 1027.49 1028.58 1029.54 1030.20 1030.22 1030.72 1030.75 1031.26 1031.12 1031.87 1032.16 1032.22 1032.26 1032.27 1032.15 1031.97
1020.56 1020.30 1020.03 1019.71 1019.39 1019.15 1018.89 1018.60 1018.35 1018.15 1018.16 1017.99 1017.72 1017.79 1017.83 1021.36 1021.20 1020.95 1020.62 1020.09 1019.87 1019.17 1019.20 1020.26 1020.19 1020.48 1023.83 1026.01 1027.51 1028.15 1028.76 1029.67 1030.53 1030.64 1030.90 1030.84 1031.09 1031.34 1031.86 1032.23 1032.27 1032.30 1032.25 1032.10 1031.97
1020.72 1020.47 1020.19 1019.85 1019.48 1019.12 1018.96 1018.84 1018.66 1018.49 1018.41 1018.35 1018.15 1018.66 1020.39 1021.36 1021.12 1020.48 1020.65 1020.36 1020.34 1020.28 1020.49 1021.36 1021.29 1022.03 1024.45 1026.33 1027.66 1028.11 1028.92 1029.35 1030.42 1030.57 1030.88 1030.96 1030.58 1031.39 1031.95 1032.22 1032.23 1032.27 1032.24 1032.09 1031.87
1020.94 1020.69 1020.37 1019.98 1019.62 1019.25 1019.08 1018.98 1018.82 1018.66 1018.48 1018.45 1018.72 1019.35 1021.47 1021.29 1021.37 1021.59 1021.57 1021.32 1021.12 1021.19 1021.57 1021.85 1021.79 1024.17 1025.90 1026.14 1027.46 1028.55 1028.95 1029.73 1030.35 1030.75 1030.67 1030.86 1030.63 1031.25 1031.96 1032.21 1032.11 1032.04 1032.05 1031.92 1031.76
1021.09 1020.81 1020.46 1020.04 1019.74 1019.34 1019.15 1019.18 1019.03 1018.82 1019.14 1018.99 1019.81 1020.47 1022.38 1022.93 1022.59 1022.30 1021.98 1021.79 1022.00 1021.90 1021.92 1023.28 1024.30 1025.29 1026.72 1026.75 1028.11 1028.90 1029.34 1029.96 1030.42 1030.84 1030.97 1031.01 1030.91 1031.51 1031.76 1031.98 1031.82 1031.63 1031.55 1031.54 1031.39
1021.24 1020.88 1020.55 1020.17 1019.72 1019.39 1019.09 1019.30 1020.11 1020.76 1021.27 1022.09 1022.70 1022.76 1023.10 1023.18 1023.11 1023.02 1022.79 1022.37 1022.97 1023.67 1024.95 1025.61 1025.31 1027.79 1028.94 1028.96 1029.30 1029.79 1030.28 1030.58 1030.82 1031.33 1031.39 1031.13 1031.05 1031.03 1031.49 1031.72 1031.37 1031.17 1031.12 1030.99 1030.90
1021.42 1021.03 1020.66 1020.39 1020.10 1019.79 1019.82 1021.37 1022.39 1022.60 1023.07 1023.03 1023.04 1023.16 1023.22 1023.39 1023.50 1023.67 1023.31 1024.21 1025.03 1025.93 1026.61 1027.50 1028.80 1030.17 1030.41 1030.37 1030.35 1030.52 1030.63 1030.79 1031.06 1031.51 1031.69 1031.32 1030.57 1030.65 1030.82 1030.68 1030.79 1030.70 1030.52 1030.40 1030.43
1021.57 1021.19 1020.79 1020.52 1020.35 1020.74 1021.70 1022.62 1022.64 1022.57 1022.92 1023.68 1023.55 1023.46 1023.70 1023.78 1024.74 1025.15 1025.32 1026.44 1026.99 1027.37 1027.85 1028.32 1030.30 1030.67 1030.79 1030.84 1030.71 1030.76 1030.83 1030.95 1031.26 1031.48 1031.77 1031.19 1029.96 1030.14 1030.19 1030.51 1030.66 1030.42 1030.15 1029.99 1029.89
1021.72 1021.34 1020.87 1020.51 1020.80 1022.10 1022.52 1022.84 1022.59 1022.49 1023.18 1024.24 1023.67 1023.80 1023.95 1024.13 1025.30 1025.94 1026.15 1026.65 1027.50 1028.35 1028.74 1029.58 1030.51 1030.75 1030.81 1030.89 1031.03 1030.65 1031.10 1031.14 1031.25 1031.43 1031.48 1031.72 1030.51 1029.82 1030.11 1029.90 1029.84 1029.31 1029.18 1029.09 1029.22
1021.94 1021.58 1021.24 1020.50 1021.76 1022.56 1022.92 1022.72 1022.55 1022.54 1023.60 1024.62 1023.97 1023.74 1024.22 1024.77 1025.80 1026.18 1026.59 1026.56 1027.78 1028.60 1028.97 1030.30 1030.46 1030.60 1030.71 1031.14 1031.17 1031.16 1031.13 1031.09 1031.23 1031.32 1031.58 1031.78 1031.53 1029.53 1030.00 1029.10 1028.63 1028.47 1028.32 1028.37 1028.66
1022.11 1021.75 1021.51 1021.64 1022.29 1022.97 1022.82 1022.62 1022.61 1023.24 1024.30 1024.60 1024.36 1024.34 1024.74 1025.45 1026.16 1026.58 1026.84 1027.16 1028.25 1028.63 1029.21 1030.16 1030.54 1030.69 1030.81 1031.07 1031.20 1031.15 1031.01 1031.03 1031.26 1031.28 1031.38 1032.17 1032.05 1029.55 1029.26 1028.84 1028.44 1028.09 1028.14 1028.21 1028.30
1022.34 1022.11 1021.83 1022.44 1023.23 1023.01 1022.84 1022.92 1023.72 1024.59 1025.15 1025.01 1024.76 1024.83 1025.34 1026.04 1026.58 1027.07 1027.83 1028.37 1028.82 1029.09 1029.63 1030.16 1030.39 1030.68 1030.88 1030.92 1031.00 1030.81 1030.62 1030.46 1030.57 1030.81 1031.72 1032.71 1032.30 1029.55 1028.79 1028.61 1028.51 1028.14 1027.98 1028.08 1028.31
1022.53 1022.29 1023.18 1023.49 1023.45 1023.01 1023.05 1023.75 1024.56 1025.12 1024.91 1024.74 1024.79 1025.15 1025.63 1026.19 1027.02 1027.55 1028.04 1028.86 1029.36 1029.37 1029.86 1030.12 1030.23 1030.67 1030.95 1031.17 1031.43 1031.60 1031.64 1031.79 1032.18 1032.16 1032.48 1032.97 1031.75 1028.98 1028.49 1028.51 1028.35 1028.29 1028.26 1028.26 1028.51
1022.65 1023.15 1023.55 1023.60 1023.43 1023.08 1023.53 1024.65 1024.88 1025.07 1024.69 1024.74 1024.99 1025.27 1025.81 1026.15 1026.65 1027.44 1028.25 1029.00 1029.44 1029.61 1030.00 1030.17 1030.33 1030.73 1031.06 1031.30 1031.78 1031.78 1032.25 1032.91 1032.73 1033.35 1033.15 1031.82 1030.96 1028.78 1028.08 1027.98 1028.02 1027.99 1028.18 1028.19 1028.72
1023.19 1023.86 1024.22 1023.98 1023.67 1023.51 1024.26 1025.20 1025.26 1024.99 1024.75 1024.75 1024.98 1025.31 1025.79 1026.25 1026.83 1027.44 1028.33 1028.96 1029.47 1029.83 1030.06 1030.46 1030.50 1030.71 1031.31 1031.46 1032.01 1032.01 1032.79 1033.03 1033.15 1033.08 1032.49 1031.13 1030.71 1028.86 1027.56 1027.49 1027.62 1027.74 1027.83 1028.18 1028.69
1023.58 1024.46 1024.33 1024.08 1023.79 1024.36 1025.14 1025.50 1025.39 1025.09 1024.88 1025.01 1025.07 1025.51 1025.95 1026.39 1026.91 1027.59 1028.39 1029.19 1029.47 1030.01 1030.22 1030.47 1030.75 1030.94 1031.16 1031.14 1031.34 1032.23 1032.51 1033.21 1033.59 1033.63 1033.32 1032.23 1028.46 1027.55 1027.33 1027.53 1027.77 1027.66 1027.93 1028.27 1028.52
1024.21 1024.83 1024.58 1023.98 1024.87 1025.98 1025.95 1025.57 1025.16 1025.13 1025.05 1025.15 1025.29 1025.62 1026.03 1026.50 1027.09 1027.73 1028.43 1029.02 1029.54 1029.94 1030.39 1030.75 1030.81 1030.44 1030.44 1030.91 1031.16 1031.56 1031.75 1032.13 1032.59 1033.27 1033.44 1032.97 1028.77 1026.85 1027.25 1027.65 1027.77 1027.68 1027.95 1028.09 1028.30
1025.03 1025.39 1024.96 1024.73 1025.75 1026.65 1026.26 1025.82 1025.44 1025.38 1025.32 1025.49 1025.71 1025.88 1026.22 1026.61 1027.27 1027.75 1028.52 1029.51 1029.88 1030.20 1030.38 1030.70 1030.76 1030.42 1030.39 1031.11 1031.15 1031.20 1031.46 1031.84 1032.38 1032.94 1032.51 1031.94 1027.45 1026.62 1027.28 1027.50 1027.66 1027.82 1027.81 1027.93 1028.19
1025.42 1026.07 1026.06 1026.09 1026.60 1026.20 1026.23 1026.00 1025.82 1025.60 1025.57 1025.59 1025.92 1026.18 1026.58 1026.91 1027.28 1027.95 1028.80 1029.67 1030.08 1030.32 1030.58 1030.70 1030.69 1030.30 1029.78 1029.43 1030.00 1030.57 1030.86 1031.37 1031.70 1032.31 1031.69 1029.89 1027.17 1026.28 1026.65 1027.30 1027.47 1027.67 1027.77 1027.83 1028.08
1025.67 1026.47 1026.75 1027.05 1026.80 1026.39 1026.17 1026.11 1026.04 1025.92 1025.91 1025.97 1026.28 1026.31 1026.61 1027.20 1027.61 1028.06 1028.91 1029.78 1030.31 1030.54 1030.91 1030.98 1030.66 1030.37 1029.40 1029.18 1029.54 1029.45 1029.73 1030.35 1030.81 1030.82 1030.86 1028.49 1028.23 1026.49 1026.53 1027.11 1027.31 1027.47 1027.60 1027.57 1027.58
1025.77 1026.33 1026.84 1026.93 1026.73 1026.58 1026.41 1026.25 1025.95 1025.98 1026.07 1026.30 1026.47 1026.46 1026.81 1027.03 1027.18 1027.78 1028.51 1029.33 1029.64 1030.81 1030.96 1031.28 1030.78 1030.46 1029.13 1028.80 1028.90 1028.39 1028.20 1028.77 1029.45 1030.09 1029.95 1028.93 1027.75 1025.94 1025.86 1026.71 1027.04 1027.17 1027.28 1027.23 1027.18
1026.08 1026.05 1025.95 1027.33 1026.97 1026.80 1026.27 1025.76 1025.73 1025.80 1026.13 1026.17 1026.45 1026.90 1027.26 1027.11 1027.32 1027.68 1028.15 1028.54 1028.98 1029.80 1030.65 1030.98 1030.80 1030.44 1028.94 1028.41 1027.80 1026.96 1025.59 1026.77 1027.39 1027.74 1027.93 1027.64 1025.74 1025.71 1025.59 1026.09 1026.29 1026.53 1026.78 1026.79 1026.84
Wind_Speed
9 8 9 10 12 11 11 12 11 11 9 8 8 4 2 5 8 31 23 14 16 27 13 4 24 10 19 10 11 3 8 7 4 3 6 5 6 11 11 18 13 7 8 6 9
10 9 9 11 11 11 11 12 12 10 9 8 8 3 3 3 7 29 16 26 22 18 7 17 16 22 10 10 9 8 6 5 1 9 11 8 8 7 6 10 11 10 9 7 8
9 10 11 9 10 12 12 11 10 10 11 11 10 7 1 2 14 10 24 28 22 10 7 8 12 18 17 13 9 7 8 12 15 19 15 11 11 2 6 9 6 6 7 8 9
10 8 8 11 11 10 10 10 10 10 11 11 12 15 15 7 11 13 28 26 19 8 9 10 10 10 9 11 7 15 11 9 11 5 6 6 6 8 7 6 6 6 5 7 10
8 9 10 9 9 9 8 9 9 10 13 13 10 9 8 20 7 9 22 20 12 8 12 14 20 10 13 16 24 19 12 11 14 14 11 11 9 9 9 6 6 6 6 7 7
9 8 8 8 9 9 9 8 8 9 10 15 14 5 7 29 3 8 14 20 21 16 17 8 14 21 15 5 8 12 20 14 7 9 6 11 5 2 4 4 5 4 4 4 6
9 9 9 9 9 10 9 9 8 9 8 8 9 9 27 7 3 9 9 14 12 17 13 6 5 12 13 21 17 18 15 10 4 2 4 3 3 5 5 5 4 2 1 2 2
10 9 10 9 10 10 9 8 8 8 8 10 8 9 11 4 3 18 8 13 19 13 14 9 16 17 7 19 5 4 3 3 4 2 2 4 3 7 5 7 7 6 3 2 1
9 9 9 9 10 9 8 7 7 10 10 5 9 7 7 8 8 7 12 4 4 7 18 9 10 11 3 6 5 7 3 4 2 3 2 1 4 8 6 9 9 7 6 6 5
9 9 10 9 9 7 4 5 6 9 7 2 5 6 7 8 5 8 5 13 10 5 10 14 9 10 9 3 4 4 3 2 3 4 4 3 8 6 9 10 11 9 8 9 9
9 9 10 11 12 10 4 4 7 10 12 7 2 7 2 3 4 11 6 6 9 14 9 15 15 15 11 11 7 6 2 3 3 3 3 5 9 10 10 10 13 13 11 11 12
10 9 9 9 10 8 6 6 2 3 7 6 4 4 3 2 5 18 11 10 11 8 5 10 14 3 5 6 5 4 4 2 4 2 4 3 12 9 12 14 14 14 13 13 11
10 10 8 7 3 8 6 3 4 4 6 4 2 4 3 7 6 11 5 3 11 18 15 11 5 5 2 2 2 2 5 3 4 3 1 9 5 5 9 15 13 14 15 13 13
11 10 10 2 10 2 4 4 3 2 6 8 6 5 5 3 7 3 3 3 4 5 5 9 2 3 3 4 3 4 5 4 2 3 4 6 6 4 3 10 13 16 16 16 15
12 9 10 8 6 3 3 4 1 3 5 4 4 1 3 6 2 8 4 8 6 4 2 3 1 3 5 2 3 4 3 1 2 1 3 2 4 5 3 6 9 10 14 15 13
11 10 4 5 3 1 5 2 3 6 3 1 2 2 4 6 3 2 6 8 3 6 11 3 0 1 1 1 2 4 2 2 2 1 1 2 4 5 3 4 5 6 8 11 11
10 8 6 1 1 6 3 4 6 7 2 0 1 2 3 3 4 5 4 7 4 1 5 1 1 1 1 2 1 5 2 2 1 2 4 0 4 10 9 10 11 13 14 12 10
7 7 5 3 5 4 3 6 7 2 3 1 2 2 3 1 2 3 2 3 4 3 3 3 1 0 0 2 2 5 5 3 5 5 7 1 7 5 5 6 10 12 12 11 10
4 3 3 5 6 2 5 5 7 6 4 5 2 2 1 1 3 3 3 2 0 2 2 2 1 1 1 2 1 2 4 1 1 1 4 3 7 13 6 7 6 8 7 9 6
3 3 3 7 5 4 5 3 2 2 3 2 4 2 3 2 1 1 2 2 3 1 1 3 3 1 4 2 7 1 6 1 3 6 6 4 6 7 5 4 6 8 7 6 5
4 4 3 7 2 5 4 4 3 2 1 2 4 3 2 3 3 2 3 1 3 3 2 3 1 2 2 6 5 4 3 4 2 1 4 6 8 7 8 5 8 10 7 5 7
3 3 3 3 5 1 3 3 2 3 2 1 3 2 4 5 3 3 3 1 4 5 2 1 2 4 1 1 1 2 3 4 2 3 2 2 12 3 7 6 7 10 8 7 6
3 0 2 2 4 0 2 1 1 3 2 3 2 1 1 4 2 2 3 1 3 3 4 5 1 4 3 3 0 5 5 4 5 3 7 3 8 3 4 6 7 10 8 7 6
3 3 4 4 1 5 4 3 2 2 2 3 4 3 2 2 1 4 4 3 2 2 6 3 3 4 4 2 2 4 6 10 6 4 4 12 16 18 14 7 11 7 5 6 5
3 1 1 2 2 3 3 4 3 3 0 1 1 3 5 4 2 4 2 3 1 7 3 3 4 4 10 13 10 11 13 13 13 6 8 2 8 21 18 9 6 4 4 5 5
4 3 2 2 2 4 1 5 7 3 6 3 4 5 5 5 6 7 6 5 5 3 4 1 2 2 6 3 3 12 14 15 17 9 14 18 24 17 12 2 5 8 6 7 6
1 1 3 1 2 3 4 5 6 5 4 1 4 4 4 5 3 1 2 3 6 8 8 5 2 1 5 3 9 8 7 15 8 10 7 8 11 3 6 7 6 5 7 8 7
Wind_Direction
37 29 30 25 22 14 14 12 16 19 12 0 350 330 15 329 332 43 36 324 307 310 318 72 49 55 55 48 43 58 77 83 112 130 113 129 106 65 74 81 64 74 73 48 15
35 35 28 25 16 12 13 15 12 10 9 0 347 25 195 346 35 41 349 344 332 332 60 84 63 54 57 27 35 58 78 68 80 110 117 95 102 104 94 80 77 82 71 56 42
37 33 22 15 14 14 11 9 6 11 9 9 7 46 120 347 38 355 341 339 337 350 64 88 83 73 62 47 20 45 97 116 93 108 106 99 76 130 114 61 52 69 62 48 45
34 25 15 14 14 11 6 3 5 11 20 19 16 39 36 52 55 327 329 331 344 20 80 53 52 64 68 67 48 99 84 104 124 113 104 92 95 88 73 107 100 78 68 52 41
31 26 16 10 9 4 6 4 1 10 13 29 47 39 39 68 58 295 331 353 16 47 53 90 75 89 91 101 83 91 96 85 104 94 91 110 97 109 105 121 116 102 76 56 46
28 27 19 11 5 3 2 4 7 27 30 20 50 63 60 70 265 324 332 19 25 62 57 74 94 102 79 81 66 115 112 110 93 104 132 115 127 185 156 139 115 96 76 61 38
25 22 16 8 356 359 7 24 29 44 54 54 40 74 64 70 326 324 350 39 30 51 76 15 112 96 107 91 107 118 107 108 74 102 130 96 120 146 147 151 145 155 171 71 28
18 16 8 356 353 357 26 34 42 45 57 60 44 58 80 300 315 27 358 53 47 53 79 69 87 91 69 119 83 84 84 89 41 18 25 210 302 188 170 180 193 207 222 258 293
14 7 359 349 355 359 13 44 45 48 27 57 38 80 51 338 8 338 33 19 13 43 49 56 57 73 86 99 94 34 82 68 177 35 311 323 288 198 193 203 220 220 227 241 258
14 5 355 350 356 351 38 58 7 44 3 25 85 61 9 4 334 333 345 42 42 360 28 29 56 83 49 21 57 26 39 43 328 353 344 276 263 211 206 216 237 239 238 246 248
10 9 2 356 8 3 47 22 21 12 27 70 307 81 32 323 46 13 343 11 26 54 53 22 72 56 41 53 82 93 108 231 258 324 265 242 268 226 214 231 244 245 247 249 248
3 2 7 359 8 29 69 72 127 148 70 33 57 67 79 90 35 15 22 55 33 68 35 63 76 129 89 69 97 162 182 272 255 352 245 292 267 238 227 238 245 257 258 256 253
2 356 351 6 44 38 74 56 316 136 79 12 37 52 2 48 51 6 41 86 68 66 66 82 106 155 150 64 279 61 19 280 281 338 81 310 272 249 239 246 256 256 259 261 254
1 1 355 26 47 304 54 340 328 168 77 340 353 23 18 109 58 8 34 115 69 112 84 75 96 98 91 59 326 341 339 264 234 298 335 342 297 278 314 277 251 261 260 259 256
356 353 19 62 146 63 325 330 133 54 71 330 2 316 23 74 141 33 14 41 73 54 234 79 42 37 49 15 325 338 5 59 102 93 295 58 269 272 307 283 278 265 271 274 265
357 350 2 30 50 20 316 318 49 46 78 48 5 20 56 23 49 338 39 42 125 65 49 93 358 8 26 189 325 319 182 93 99 308 281 27 335 275 252 255 280 277 298 296 276
359 11 53 50 77 329 332 45 39 84 319 303 94 68 83 24 40 32 43 36 46 103 37 17 18 336 334 294 295 356 351 318 286 327 351 5 272 259 259 258 261 286 297 295 284
7 51 1 61 327 331 50 56 72 207 203 164 120 105 93 32 60 25 86 68 64 57 96 21 84 175 43 38 356 23 3 43 296 322 318 325 241 255 241 282 272 272 283 288 298
36 20 39 341 348 24 72 68 190 204 158 152 95 88 18 53 114 86 46 119 5 36 36 352 216 128 26 113 301 53 47 49 171 158 267 260 266 274 256 266 268 281 289 297 315
72 55 353 321 346 56 74 173 163 204 142 140 168 184 176 225 155 108 186 168 158 127 218 164 280 156 135 117 56 308 130 155 59 346 303 287 275 262 292 297 323 312 310 315 319
61 59 274 334 37 46 131 196 197 216 146 151 190 145 173 190 177 193 168 170 185 144 110 139 211 124 151 201 180 156 153 80 134 192 313 313 287 214 244 284 307 310 303 295 313
96 53 309 346 57 21 135 193 175 160 125 105 108 126 169 165 168 173 189 220 153 154 142 126 155 261 249 75 200 203 178 175 192 163 222 293 273 234 242 270 286 299 295 282 297
82 63 328 48 125 348 264 76 144 136 172 145 134 142 163 171 156 155 145 316 154 143 165 168 171 297 189 169 193 230 189 157 111 107 211 233 274 159 226 266 298 302 292 277 290
98 38 341 49 33 133 152 198 191 356 136 123 129 105 116 151 29 172 167 170 154 120 115 143 178 228 243 269 119 207 193 196 178 194 179 233 282 295 308 300 315 309 274 277 282
35 209 181 257 289 136 135 149 155 208 10 171 69 201 167 166 172 197 141 147 87 142 90 191 255 220 264 268 259 253 244 203 204 178 223 312 249 286 296 295 278 257 255 255 271
133 144 35 86 57 115 83 208 185 182 161 229 206 181 188 177 193 192 162 201 195 167 172 159 251 273 275 174 207 263 243 221 227 219 258 267 282 279 284 255 246 252 247 252 263
149 73 114 347 109 121 221 201 208 159 204 205 184 129 199 231 172 69 116 103 160 161 179 174 200 325 269 300 299 268 229 191 187 196 177 209 238 328 288 278 258 255 232 238 249